| time (UTC) | temp C | wind direction | speed KPH | gust KPH | rain 1hr cm | rain 24hr cm | rain mn cm | humidity % | barometer mb |
| 20260905173017 | 28 | 112 | 11.3 | 17.7 | 0.00 | 0.00 | 0.00 | 30 | 1009.8 |
| 20260905172516 | 28 | 90 | 8.0 | 14.5 | 0.00 | 0.00 | 0.00 | 31 | 1009.9 |
| 20260905172017 | 28 | 90 | 8.0 | 14.5 | 0.00 | 0.00 | 0.00 | 30 | 1009.8 |
| 20260905171518 | 28 | 90 | 8.0 | 17.7 | 0.00 | 0.00 | 0.00 | 32 | 1009.7 |
| 20260905171017 | 28 | 90 | 8.0 | 17.7 | 0.00 | 0.00 | 0.00 | 31 | 1009.9 |
| 20260905170517 | 28 | 90 | 6.4 | 12.9 | 0.00 | 0.00 | 0.00 | 32 | 1009.8 |
| 20260905170016 | 28 | 112 | 8.0 | 14.5 | 0.00 | 0.00 | 0.00 | 34 | 1009.9 |
| 20260905165537 | 27 | 112 | 8.0 | 16.1 | 0.00 | 0.00 | 0.00 | 35 | 1009.8 |
| 20260905165017 | 27 | 112 | 6.4 | 11.3 | 0.00 | 0.00 | 0.00 | 35 | 1009.9 |
| 20260905164517 | 27 | 112 | 6.4 | 16.1 | 0.00 | 0.00 | 0.00 | 35 | 1009.9 |
| 20260905164037 | 27 | 112 | 8.0 | 12.9 | 0.00 | 0.00 | 0.00 | 35 | 1009.9 |
| 20260905163516 | 26 | 90 | 4.8 | 12.9 | 0.00 | 0.00 | 0.00 | 36 | 1009.8 |
| 20260905163037 | 26 | 90 | 4.8 | 9.7 | 0.00 | 0.00 | 0.00 | 36 | 1009.9 |
| 20260905162517 | 26 | 90 | 3.2 | 8.0 | 0.00 | 0.00 | 0.00 | 38 | 1009.7 |
| 20260905162016 | 26 | 112 | 4.8 | 8.0 | 0.00 | 0.00 | 0.00 | 38 | 1009.9 |
| 20260905161516 | 26 | 112 | 6.4 | 11.3 | 0.00 | 0.00 | 0.00 | 37 | 1009.9 |
| 20260905161017 | 26 | 90 | 4.8 | 9.7 | 0.00 | 0.00 | 0.00 | 39 | 1009.9 |
| 20260905160537 | 26 | 112 | 6.4 | 11.3 | 0.00 | 0.00 | 0.00 | 39 | 1009.8 |
| 20260905160037 | 25 | 112 | 6.4 | 12.9 | 0.00 | 0.00 | 0.00 | 40 | 1009.7 |
| 20260905155516 | 25 | 90 | 6.4 | 9.7 | 0.00 | 0.00 | 0.00 | 40 | 1009.6 |
| 20260905155017 | 25 | 112 | 8.0 | 16.1 | 0.00 | 0.00 | 0.00 | 40 | 1009.4 |
| 20260905154516 | 25 | 112 | 11.3 | 16.1 | 0.00 | 0.00 | 0.00 | 39 | 1009.3 |
| 20260905154016 | 25 | 90 | 9.7 | 14.5 | 0.00 | 0.00 | 0.00 | 41 | 1009.6 |
| 20260905153519 | 25 | 112 | 9.7 | 14.5 | 0.00 | 0.00 | 0.00 | 38 | 1009.5 |
| 20260905153036 | 25 | 112 | 8.0 | 14.5 | 0.00 | 0.00 | 0.00 | 38 | 1009.4 |
| 20260905152536 | 25 | 90 | 6.4 | 11.3 | 0.00 | 0.00 | 0.00 | 38 | 1009.4 |
| 20260905152057 | 25 | 135 | 4.8 | 11.3 | 0.00 | 0.00 | 0.00 | 37 | 1009.3 |
| 20260905151538 | 25 | 112 | 4.8 | 8.0 | 0.00 | 0.00 | 0.00 | 36 | 1009.2 |
| 20260905151017 | 25 | 112 | 4.8 | 6.4 | 0.00 | 0.00 | 0.00 | 37 | 1009.1 |
| 20260905150516 | 24 | 112 | 4.8 | 6.4 | 0.00 | 0.00 | 0.00 | 37 | 1009.0 |
| 20260905150036 | 24 | 135 | 4.8 | 6.4 | 0.00 | 0.00 | 0.00 | 39 | 1009.0 |
| 20260905145516 | 24 | 135 | 3.2 | 6.4 | 0.00 | 0.00 | 0.00 | 38 | 1009.0 |
| 20260905145016 | 24 | 225 | 3.2 | 4.8 | 0.00 | 0.00 | 0.00 | 39 | 1009.2 |
| 20260905144516 | 23 | 225 | 1.6 | 4.8 | 0.00 | 0.00 | 0.00 | 37 | 1009.1 |
| 20260905144017 | 23 | 225 | 3.2 | 6.4 | 0.00 | 0.00 | 0.00 | 38 | 1009.1 |
| 20260905143537 | 23 | 202 | 1.6 | 3.2 | 0.00 | 0.00 | 0.00 | 39 | 1009.1 |
| 20260905143017 | 23 | 202 | 4.8 | 11.3 | 0.00 | 0.00 | 0.00 | 39 | 1009.0 |
| 20260905142557 | 23 | 225 | 6.4 | 11.3 | 0.00 | 0.00 | 0.00 | 38 | 1009.1 |
| 20260905142016 | 23 | 225 | 8.0 | 9.7 | 0.00 | 0.00 | 0.00 | 39 | 1009.3 |
| 20260905141516 | 22 | 225 | 4.8 | 9.7 | 0.00 | 0.00 | 0.00 | 41 | 1009.3 |
| 20260905141016 | 21 | 225 | 1.6 | 4.8 | 0.00 | 0.00 | 0.00 | 46 | 1009.3 |
| 20260905140516 | 20 | 225 | 1.6 | 1.6 | 0.00 | 0.00 | 0.00 | 54 | 1009.4 |
| 20260905140017 | 20 | 225 | 1.6 | 3.2 | 0.00 | 0.00 | 0.00 | 50 | 1009.2 |
| 20260905135516 | 21 | 0.0 | 1.6 | 0.00 | 0.00 | 0.00 | 49 | 1009.3 | |
| 20260905135016 | 20 | 0.0 | 3.2 | 0.00 | 0.00 | 0.00 | 47 | 1009.1 | |
| 20260905134516 | 19 | 225 | 1.6 | 3.2 | 0.00 | 0.00 | 0.00 | 51 | 1009.1 |
| 20260905134017 | 17 | 0.0 | 0.0 | 0.00 | 0.00 | 0.00 | 59 | 1009.0 | |
| 20260905133516 | 16 | 0.0 | 0.0 | 0.00 | 0.00 | 0.00 | 61 | 1008.9 | |
| 20260905133016 | 16 | 0.0 | 0.0 | 0.00 | 0.00 | 0.00 | 60 | 1008.8 | |
| 20260905132536 | 15 | 0.0 | 0.0 | 0.00 | 0.00 | 0.00 | 59 | 1008.7 | |
| 20260905132016 | 15 | 0.0 | 0.0 | 0.00 | 0.00 | 0.00 | 63 | 1008.7 | |
| 20260905131516 | 15 | 0.0 | 3.2 | 0.00 | 0.00 | 0.00 | 61 | 1008.8 | |
| 20260905131016 | 15 | 0.0 | 0.0 | 0.00 | 0.00 | 0.00 | 60 | 1008.7 | |
| 20260905130536 | 13 | 0.0 | 1.6 | 0.00 | 0.00 | 0.00 | 68 | 1008.5 | |
| 20260905130017 | 13 | 0.0 | 1.6 | 0.00 | 0.00 | 0.00 | 66 | 1008.4 | |
| 20260905125517 | 13 | 0.0 | 0.0 | 0.00 | 0.00 | 0.00 | 67 | 1008.4 | |
| 20260905125036 | 12 | 0.0 | 0.0 | 0.00 | 0.00 | 0.00 | 70 | 1008.3 | |
| 20260905124350 | 13 | 0.0 | 3.2 | 0.00 | 0.00 | 0.00 | 66 | 1008.2 | |
| 20260905124348 | 13 | 0.0 | 0.0 | 0.00 | 0.00 | 0.00 | 62 | 1008.6 |